Flag for India Weather past 2 weeks in Pratapgarh, Uttar Pradesh, India

Now
84 °F

Haze.


Feels Like: 92 °F
Forecast: 80 / 99 °F
Wind: No wind

Location: Lucknow / Amausi

Current Time: Sep 5, 2015 at 1:10:17 AM

Latest Report: Sep 5, 2015 at 12:00 AM


Visibility: 2 mi

Pressure: 29.77 "Hg

Humidity: 74%

Dew point: 75 °F

Location of PratapgarhLocation

Historic Weather in Pratapgarh — Graph

°F

Pratapgarh temperature yesterday

Maximum temperature yesterday: 99 °F (at 12:00 PM)
Minimum temperature yesterday: 81 °F (at 5:00 AM)
Average temperature yesterday: 91 °F

Past Weeks' High & Low Weather Summary

 TemperatureHumidityPressure
High99 °F (Aug 26, 1:00 PM)100% (Aug 22, 5:30 AM)29.80 "Hg (Aug 22, 5:30 AM)
Low75 °F (Aug 22, 8:30 AM)44% (Sep 4, 1:00 PM)29.50 "Hg (Aug 22, 5:00 PM)
Average89 °F76%29.60 "Hg
* Reported Aug 20 11:00 PM — Sep 4 11:00 PM, Pratapgarh, Weather by CustomWeather, © 2015

Note: Actual official high and low records may vary slightly from our data, if they occured in-between our weather recording intervals... More about our weather records

Advertising

Pratapgarh weather history for previous 24 hours

 ConditionsComfort  
Time TempWeatherWind HumidityBarometerVisibility
11:00 PM
Fri, Sep 4
84 °FHaze.No wind79%29.77 "Hg2 mi
10:00 PM86 °FHaze.No wind75%29.77 "Hg2 mi
9:00 PM88 °FHaze.No wind70%29.77 "Hg2 mi
8:30 PM88 °FHaze.No wind75%29.77 "Hg2 mi
8:00 PM90 °FHaze.No wind67%29.77 "Hg2 mi
7:30 PM90 °FHaze.No wind67%29.74 "Hg2 mi
7:00 PM91 °FHaze.2 mph63%29.74 "Hg2 mi
6:30 PM95 °FHaze.2 mph53%29.74 "Hg3 mi
6:00 PM95 °FHaze.3 mph53%29.74 "Hg3 mi
5:30 PM97 °FScattered clouds.7 mph47%29.74 "Hg3 mi
5:00 PM99 °FHaze.6 mph44%29.74 "Hg3 mi
4:30 PM99 °FScattered clouds.7 mph44%29.74 "Hg3 mi
4:00 PM99 °FScattered clouds.8 mph44%29.74 "Hg3 mi
3:30 PM99 °FScattered clouds.8 mph44%29.74 "Hg3 mi
3:00 PM99 °FScattered clouds.8 mph44%29.74 "Hg3 mi
2:30 PM99 °FBroken clouds.7 mph47%29.77 "Hg3 mi
2:00 PM99 °FBroken clouds.7 mph47%29.77 "Hg3 mi
1:30 PM99 °FScattered clouds.6 mph50%29.77 "Hg3 mi
1:00 PM99 °FScattered clouds.6 mph44%29.80 "Hg3 mi
12:30 PM99 °FScattered clouds.7 mph47%29.80 "Hg3 mi
12:00 PM99 °FScattered clouds.8 mph47%29.80 "Hg3 mi
11:30 AM97 °FScattered clouds.7 mph50%29.80 "Hg3 mi
11:00 AM97 °FScattered clouds.5 mph53%29.80 "Hg3 mi
10:30 AM97 °FScattered clouds.5 mph53%29.80 "Hg3 mi
9:30 AM93 °FScattered clouds.5 mph59%29.80 "Hg3 mi
9:00 AM91 °FScattered clouds.3 mph63%29.80 "Hg2 mi
8:30 AM88 °FHaze.2 mph70%29.80 "Hg2 mi
8:00 AM86 °FHaze.2 mph79%29.80 "Hg2 mi
7:30 AM82 °FScattered clouds.2 mph89%29.80 "Hg2 mi
7:00 AM82 °FScattered clouds.2 mph89%29.77 "Hg2 mi
6:30 AM81 °FScattered clouds.No wind89%29.77 "Hg2 mi
6:00 AM81 °FHaze.No wind89%29.77 "Hg2 mi
5:30 AM81 °FHaze.No wind89%29.77 "Hg2 mi
5:00 AM81 °FHaze.No wind89%29.74 "Hg2 mi
3:00 AM84 °FPassing clouds.No wind79%29.74 "Hg2 mi
2:00 AM84 °FPassing clouds.No wind79%29.74 "Hg2 mi
1:00 AM84 °FPassing clouds.No wind79%29.74 "Hg2 mi
Weather by CustomWeather, © 2015

See weather overviewHow to use our weather pages